Location: Unspecified
(0.0000°N, 0.0000°E)
Time: 18:32:29
(UTC+00:00)

NANOACE - Visible Passes

Search period start: 18 May 2026 00:00
Search period end: 28 May 2026 00:00
Orbit: 490 x 498 km, 97.4° (Epoch: 18 May)

Date Brightness Start Highest point End Pass type
(mag) Time Alt. Az. Time Alt. Az. Time Alt. Az.
18 May ? 05:21:23 10° S 05:24:52 44° WSW 05:28:22 10° NNW visible
19 May ? 04:59:54 10° SSE 05:03:34 74° ENE 05:07:11 10° N visible
20 May ? 04:38:58 10° SE 04:42:13 30° E 04:45:26 10° NNE visible
21 May ? 04:18:52 10° ESE 04:20:51 14° E 04:22:50 10° NE visible
22 May ? 05:29:34 10° SSW 05:32:52 32° WSW 05:36:08 10° NW visible
23 May ? 05:07:50 10° S 05:11:29 79° W 05:15:06 10° NNW visible
24 May ? 04:46:38 10° SSE 04:50:06 41° E 04:53:32 10° N visible
25 May ? 04:26:04 10° SE 04:28:41 19° E 04:31:16 10° NNE visible
27 May ? 05:15:38 10° S 05:19:12 56° W 05:22:45 10° NNW visible
